Wind_Speed
1 1 1 1 0 1 2 2 2 2 2 2 2 3 3 3 4 4 5 5 5 5 5 5 5 6 6 6 6 6 6 6 6 6 6 6 7 8 8 8 8 8 8
0 0 1 1 1 1 1 2 2 2 3 3 3 3 3 4 4 5 5 6 6 6 6 6 6 6 6 7 7 7 7 7 6 7 7 7 7 8 8 8 9 9 9
0 1 2 2 1 2 2 2 3 3 3 3 4 4 4 4 5 5 6 6 6 7 7 7 7 7 7 7 7 8 8 8 8 8 8 8 8 8 8 8 8 9 10
2 2 2 2 2 2 3 3 4 3 3 4 4 4 4 5 5 5 6 6 7 7 7 7 7 7 8 8 8 8 9 9 9 10 10 9 9 9 9 10 10 10 10
2 3 2 3 3 3 3 4 4 4 5 5 5 5 5 6 6 6 6 7 7 7 7 7 8 8 8 9 9 9 9 10 10 11 11 11 11 11 11 11 10 11 11
3 4 4 4 4 4 4 4 5 5 6 6 6 6 6 6 6 6 7 7 8 8 8 8 8 8 9 10 10 11 11 12 12 12 12 12 12 12 12 12 12 12 12
4 5 5 6 6 5 5 6 6 6 7 7 8 8 8 8 8 8 8 9 9 9 9 9 9 10 10 11 11 12 12 13 13 13 13 12 13 14 14 13 13 13 14
5 6 6 6 7 6 6 6 7 7 8 8 9 9 9 9 9 9 9 10 10 10 11 11 11 11 11 11 12 12 13 13 14 14 14 14 13 14 15 15 15 15 15
6 6 7 7 7 7 7 8 8 8 9 9 10 10 10 10 11 11 11 11 11 12 13 13 13 13 13 12 13 13 14 14 14 15 15 15 15 15 16 16 16 16 17
8 7 7 7 8 8 9 9 9 10 10 10 11 11 11 11 11 12 12 12 12 12 13 13 13 14 14 14 14 14 15 15 15 16 16 17 17 17 17 17 17 18 18
10 9 9 9 9 10 10 10 11 11 12 12 12 13 12 13 13 13 13 13 13 13 14 14 15 15 16 16 16 16 16 17 17 18 18 18 18 18 18 19 19 19 19
11 11 11 12 12 12 11 11 11 12 12 12 13 14 14 14 14 13 13 13 14 14 15 15 15 16 17 17 18 18 18 19 19 19 19 19 19 19 19 19 20 21 21
13 13 13 13 13 13 13 13 13 13 14 14 14 15 15 15 14 14 14 15 15 16 17 17 17 17 18 18 19 19 20 20 20 20 20 20 19 19 19 19 19 20 21
13 14 14 14 15 15 15 15 15 15 15 15 15 16 16 15 15 15 15 16 16 17 18 18 18 18 19 20 20 20 20 20 20 20 20 20 20 19 19 19 20 20 20
14 14 15 15 15 16 16 16 15 15 15 15 16 16 16 17 17 17 17 17 17 18 19 19 19 19 20 21 21 21 21 21 21 21 21 21 20 20 20 20 20 20 21
15 16 17 17 17 16 16 16 16 17 16 16 16 17 17 18 18 19 19 19 19 19 20 21 21 22 23 23 23 23 23 22 22 22 22 22 21 21 21 21 20 20 21
17 17 17 17 17 17 17 17 18 18 17 18 18 18 18 18 19 20 21 21 21 21 22 23 24 24 25 25 25 24 23 23 23 23 23 23 22 23 23 22 21 21 22
19 19 19 19 19 19 19 19 19 19 19 20 21 20 20 20 21 21 22 23 24 24 25 26 26 26 25 26 25 25 25 24 24 24 24 24 24 24 23 23 23 23 22
21 22 22 21 21 21 21 21 21 22 22 22 22 22 23 23 23 23 24 24 25 27 27 28 27 27 27 27 26 26 26 26 26 26 25 25 25 24 24 24 25 24 24
22 22 23 23 23 23 23 23 23 23 23 23 24 24 25 25 25 25 26 27 27 28 28 28 29 29 28 27 27 26 27 27 27 27 27 27 26 26 26 25 26 26 25
23 23 23 23 23 24 23 23 24 24 25 26 26 26 27 27 27 27 27 28 29 29 29 29 29 29 29 28 27 27 28 28 27 28 28 28 28 27 27 27 27 27 27
24 24 24 24 25 25 24 25 25 26 27 27 28 28 28 27 27 27 28 28 29 29 29 29 29 29 28 28 28 28 29 28 28 28 28 28 28 28 28 28 29 28 28
26 26 26 25 26 26 26 26 27 27 28 28 28 29 28 28 28 28 28 28 29 30 29 28 28 29 28 29 29 29 29 29 29 29 29 29 29 30 30 30 29 29 28
27 27 27 28 28 28 28 28 29 30 29 29 29 28 28 27 28 28 28 28 29 29 30 29 28 29 30 30 30 31 31 30 30 30 30 30 30 30 31 31 30 30 29
28 28 29 29 30 29 30 30 30 30 30 29 29 29 29 29 29 28 28 28 28 28 28 27 28 29 29 30 30 31 31 31 31 30 31 31 31 31 31 31 31 31 30
27 28 29 28 29 30 31 31 31 31 30 30 31 30 30 30 29 29 28 28 29 28 28 28 28 28 28 29 29 30 31 30 30 31 31 31 31 31 31 31 31 31 30
Wind_Direction
65 59 27 12 302 262 244 238 249 247 239 242 247 246 253 261 265 267 265 267 272 277 279 281 281 282 278 281 280 283 275 266 266 269 276 280 277 269 257 253 255 255 255
93 39 319 324 324 271 255 256 260 266 258 252 261 267 268 261 262 266 266 266 270 275 278 276 282 287 282 284 282 280 275 266 265 271 276 272 273 271 263 258 259 260 262
263 301 297 294 276 271 266 273 267 271 272 265 268 277 277 269 266 265 268 270 271 274 278 276 278 282 281 286 284 281 279 272 270 274 273 274 275 271 266 263 264 265 264
284 289 285 280 283 285 274 277 271 274 279 275 277 280 286 287 278 269 269 271 272 274 275 274 275 276 278 281 282 280 278 275 274 273 273 272 271 269 268 269 267 268 269
279 279 283 278 280 281 283 281 274 270 271 273 275 275 280 286 284 272 274 274 273 271 272 274 273 274 278 281 280 280 279 277 277 272 272 271 272 271 270 268 267 269 268
278 272 274 277 276 274 274 278 278 274 273 273 274 275 276 280 280 276 275 275 276 274 274 274 277 275 277 277 277 278 280 277 278 275 273 271 269 271 270 268 268 269 267
291 290 286 279 279 277 275 275 274 274 273 275 275 276 278 278 278 279 277 275 276 275 273 273 276 277 279 278 277 277 280 279 279 279 276 272 269 267 268 269 269 270 269
290 292 288 285 284 280 280 280 276 273 273 273 274 275 278 278 278 278 279 277 277 276 275 274 276 279 280 281 280 278 279 281 281 282 280 276 273 270 267 268 269 270 271
290 286 287 286 281 278 281 278 274 275 276 275 273 272 273 276 277 277 277 278 278 275 275 275 277 278 281 283 283 280 279 280 280 280 280 278 273 270 268 270 271 272 272
286 280 281 280 282 281 279 278 276 274 275 277 274 274 276 276 282 280 279 277 279 280 277 276 278 278 278 279 281 281 280 278 277 278 279 280 278 276 271 271 273 272 272
288 284 279 278 284 283 283 280 277 275 275 276 277 276 276 276 282 283 284 282 280 281 279 278 278 277 277 278 280 280 280 277 277 278 279 280 281 278 274 271 271 272 273
289 289 287 284 285 284 283 283 281 278 279 279 278 278 279 277 278 280 281 282 281 280 280 279 278 278 278 280 280 280 280 278 278 277 276 277 278 278 278 277 273 272 272
286 286 286 289 288 285 284 283 281 279 279 278 279 279 281 279 278 279 281 282 284 284 283 281 279 278 280 281 281 282 281 280 279 278 276 276 277 278 281 281 279 276 274
284 287 287 287 284 284 284 283 283 279 277 278 280 282 281 280 279 280 282 282 284 285 286 284 284 281 282 283 284 283 281 280 281 281 280 277 277 278 279 280 281 278 275
281 282 285 286 287 285 285 285 284 282 283 282 283 281 280 280 279 280 281 282 282 284 285 284 284 283 282 282 283 281 280 281 280 281 280 278 276 276 278 280 281 279 277
285 282 283 285 287 288 288 288 284 284 284 283 283 281 282 282 281 281 281 282 282 282 282 283 283 283 283 283 283 279 279 280 280 281 281 279 276 277 277 279 279 277 276
285 283 284 287 287 288 286 284 283 284 282 282 283 282 282 281 282 282 281 281 281 283 283 283 284 284 284 284 284 282 281 276 277 278 279 277 277 279 276 274 277 279 278
282 282 284 285 286 286 284 285 283 282 282 282 282 283 282 282 282 283 282 281 281 282 283 284 286 286 285 285 283 283 282 279 277 277 276 276 277 277 274 273 275 278 280
283 282 282 282 283 285 284 284 283 282 282 283 284 284 284 284 284 284 285 284 282 282 282 283 284 286 286 285 283 282 280 279 278 277 275 275 275 273 273 274 275 277 280
283 284 284 283 283 285 286 284 282 282 283 284 285 285 285 284 284 284 284 284 283 282 283 281 283 284 285 284 282 280 279 279 279 278 276 274 273 273 272 273 275 277 280
282 283 284 284 283 283 284 283 281 280 281 283 284 284 284 285 285 285 284 283 282 282 282 281 281 282 283 282 281 280 280 279 278 279 278 274 273 273 273 273 275 277 279
280 281 281 281 281 283 283 282 282 282 281 281 283 285 285 285 286 285 285 285 284 283 282 280 279 280 280 281 281 280 280 280 279 279 278 276 274 273 273 274 274 276 278
277 278 279 280 280 282 283 284 283 282 282 283 282 283 284 283 285 287 287 285 285 285 285 281 280 280 278 278 279 279 280 279 277 277 276 276 275 273 273 274 274 275 276
277 276 278 279 280 281 282 283 283 282 282 282 282 282 283 283 285 286 286 287 288 287 285 282 280 279 278 277 277 278 279 278 277 276 276 277 276 274 274 273 273 274 274
279 279 278 278 279 281 281 281 282 282 282 281 281 282 282 283 284 286 286 287 289 289 286 284 283 281 279 278 277 278 278 277 277 277 277 278 276 274 273 272 272 273 274
281 282 282 281 281 281 280 280 280 281 281 280 279 280 281 282 283 285 286 286 288 288 287 286 285 283 280 278 278 279 279 278 277 277 277 278 276 275 274 273 273 272 273
Height
5901 5900 5900 5899 5899 5899 5899 5899 5899 5899 5898 5899 5899 5898 5898 5898 5898 5898 5898 5898 5898 5898 5897 5897 5896 5896 5896 5895 5895 5895 5895 5894 5894 5894 5894 5894 5893 5893 5893 5893 5893 5894 5894
5901 5900 5900 5899 5899 5898 5898 5898 5898 5898 5898 5898 5898 5897 5897 5897 5897 5896 5896 5896 5896 5896 5896 5896 5895 5895 5895 5894 5894 5893 5893 5893 5892 5892 5892 5892 5892 5892 5892 5892 5892 5892 5892
5900 5900 5899 5899 5898 5898 5898 5898 5897 5897 5897 5897 5897 5896 5896 5896 5896 5895 5895 5895 5895 5895 5895 5894 5894 5894 5893 5893 5892 5892 5892 5891 5891 5891 5891 5891 5890 5890 5889 5889 5889 5890 5889
5900 5900 5899 5898 5898 5897 5897 5897 5897 5896 5896 5896 5895 5895 5895 5895 5894 5894 5894 5894 5893 5893 5893 5892 5892 5892 5891 5891 5890 5890 5890 5889 5889 5889 5889 5889 5888 5888 5888 5888 5887 5887 5887
5900 5899 5899 5898 5897 5897 5897 5896 5896 5895 5895 5895 5894 5894 5894 5893 5893 5893 5892 5892 5892 5891 5891 5890 5890 5890 5889 5889 5889 5888 5887 5887 5887 5887 5887 5886 5886 5886 5885 5885 5885 5885 5885
5899 5899 5898 5897 5896 5896 5896 5895 5894 5894 5894 5894 5893 5893 5892 5892 5891 5891 5891 5890 5890 5889 5889 5888 5888 5888 5887 5887 5886 5886 5885 5885 5884 5884 5884 5883 5883 5883 5883 5883 5882 5882 5882
5898 5898 5897 5896 5895 5895 5894 5894 5893 5893 5892 5892 5892 5891 5891 5890 5889 5889 5889 5888 5888 5887 5887 5886 5886 5885 5885 5884 5884 5883 5883 5882 5881 5881 5880 5880 5880 5879 5879 5879 5879 5879 5879
5897 5896 5896 5895 5894 5893 5893 5892 5892 5891 5891 5890 5890 5889 5889 5889 5888 5887 5886 5886 5885 5885 5884 5884 5884 5883 5882 5882 5881 5880 5880 5879 5878 5877 5877 5876 5876 5876 5876 5876 5876 5875 5876
5895 5895 5894 5893 5892 5891 5891 5890 5889 5889 5888 5888 5887 5887 5887 5886 5885 5885 5884 5883 5883 5882 5882 5881 5881 5880 5879 5879 5878 5877 5877 5876 5875 5874 5873 5873 5872 5872 5872 5872 5871 5872 5872
5894 5893 5892 5891 5890 5889 5888 5888 5887 5886 5886 5885 5885 5884 5884 5883 5882 5882 5881 5880 5880 5879 5878 5878 5877 5877 5876 5875 5874 5874 5873 5872 5872 5871 5870 5869 5868 5868 5868 5868 5868 5867 5867
5891 5891 5890 5889 5888 5887 5886 5885 5884 5884 5883 5882 5882 5881 5880 5879 5878 5878 5877 5877 5876 5876 5875 5874 5874 5873 5872 5872 5871 5870 5869 5868 5868 5867 5866 5865 5864 5864 5863 5863 5863 5863 5862
5889 5888 5887 5886 5886 5885 5884 5883 5881 5881 5880 5879 5878 5877 5877 5876 5875 5874 5874 5873 5872 5872 5871 5870 5869 5869 5868 5867 5867 5866 5865 5864 5863 5862 5861 5861 5860 5859 5859 5858 5858 5858 5857
5886 5886 5885 5883 5883 5881 5880 5879 5878 5878 5877 5875 5874 5873 5873 5872 5872 5871 5870 5869 5869 5868 5866 5865 5865 5865 5864 5863 5862 5861 5860 5859 5858 5857 5856 5856 5855 5854 5854 5853 5853 5852 5852
5883 5882 5881 5880 5879 5878 5877 5876 5875 5874 5873 5872 5871 5869 5869 5868 5867 5867 5866 5866 5865 5864 5862 5861 5860 5860 5859 5858 5857 5856 5855 5854 5853 5852 5851 5850 5850 5849 5849 5848 5848 5847 5846
5879 5878 5877 5876 5875 5874 5873 5872 5871 5869 5868 5867 5867 5865 5865 5864 5863 5862 5862 5861 5861 5859 5858 5857 5856 5855 5854 5853 5852 5851 5850 5849 5848 5847 5846 5845 5844 5844 5844 5843 5842 5842 5841
5875 5874 5874 5872 5871 5870 5869 5867 5866 5865 5864 5863 5862 5861 5860 5859 5859 5858 5857 5856 5855 5854 5853 5852 5851 5850 5849 5847 5846 5845 5844 5843 5842 5841 5840 5839 5838 5838 5838 5837 5837 5836 5835
5871 5870 5869 5868 5867 5865 5864 5863 5862 5861 5860 5859 5857 5856 5855 5854 5853 5852 5852 5850 5849 5848 5847 5846 5845 5843 5842 5841 5840 5838 5837 5836 5836 5835 5834 5833 5833 5832 5832 5831 5831 5830 5829
5866 5865 5864 5863 5862 5861 5860 5858 5857 5856 5855 5854 5852 5851 5850 5849 5848 5847 5846 5844 5843 5842 5841 5840 5838 5837 5835 5834 5833 5832 5831 5830 5829 5828 5828 5827 5826 5826 5825 5825 5824 5823 5822
5861 5860 5858 5857 5856 5855 5854 5853 5851 5850 5849 5848 5847 5845 5844 5843 5842 5840 5839 5838 5837 5835 5834 5833 5832 5830 5828 5827 5826 5825 5824 5823 5822 5821 5821 5820 5819 5819 5819 5818 5817 5817 5816
5855 5853 5852 5851 5850 5849 5847 5846 5845 5844 5843 5842 5840 5839 5837 5836 5835 5833 5832 5831 5829 5828 5827 5825 5824 5823 5821 5820 5818 5818 5817 5816 5815 5814 5813 5812 5812 5811 5811 5811 5811 5810 5809
5848 5847 5846 5845 5844 5843 5841 5840 5838 5837 5836 5835 5834 5832 5830 5829 5827 5826 5824 5823 5822 5820 5818 5817 5816 5815 5814 5812 5811 5810 5809 5808 5807 5806 5805 5804 5804 5804 5803 5803 5803 5802 5801
5841 5840 5839 5838 5837 5836 5834 5833 5831 5830 5828 5827 5826 5824 5823 5821 5820 5818 5816 5815 5814 5812 5810 5809 5808 5807 5805 5804 5803 5802 5801 5800 5799 5799 5797 5796 5796 5796 5795 5795 5794 5794 5793
5834 5833 5832 5831 5830 5828 5827 5825 5824 5822 5821 5819 5817 5816 5815 5813 5812 5810 5808 5807 5805 5804 5802 5801 5799 5798 5797 5796 5795 5794 5792 5791 5791 5790 5789 5788 5788 5787 5787 5787 5786 5786 5785
5826 5825 5824 5823 5821 5820 5819 5817 5816 5814 5812 5811 5809 5808 5807 5805 5804 5802 5800 5799 5797 5795 5794 5792 5790 5789 5788 5787 5786 5785 5784 5783 5782 5781 5780 5780 5779 5778 5778 5778 5777 5777 5776
5818 5816 5815 5814 5813 5812 5811 5809 5807 5805 5804 5802 5801 5800 5799 5797 5796 5794 5792 5790 5789 5787 5785 5783 5782 5780 5779 5778 5777 5776 5775 5774 5773 5772 5771 5770 5770 5769 5768 5768 5768 5768 5767
5809 5807 5806 5805 5804 5803 5801 5799 5798 5796 5795 5794 5792 5791 5790 5789 5788 5786 5784 5782 5781 5779 5777 5775 5773 5772 5771 5769 5768 5767 5766 5765 5763 5763 5761 5761 5760 5759 5759 5758 5758 5758 5758